This is the latest recevied weather packets stored in our database for station/object KC0UFP. If no packets are shown the sender has not sent any weather packets the latest 10 day(s).
| Time | Temp. | Humidity | Pressure | Rain* | Wind** | Luminosity | Snow |
|---|---|---|---|---|---|---|---|
| 1777378087 | 17.78° C | 99% | 1014.6 hPa | 0 mm | - | 95 W/m² | - |
| 1777377783 | 17.22° C | 99% | 1014.2 hPa | 0 mm | - | 64 W/m² | - |
| 1777377476 | 17.22° C | 99% | 1014.1 hPa | 0 mm | - | 57 W/m² | - |
| 1777377172 | 17.22° C | 99% | 1014.2 hPa | 0 mm | - | 51 W/m² | - |
| 1777376870 | 17.22° C | 99% | 1013.9 hPa | 0 mm | - | 41 W/m² | - |
| 1777376567 | 17.22° C | 99% | 1014.1 hPa | 0 mm | - | 34 W/m² | - |
| 1777376264 | 17.22° C | 99% | 1014.1 hPa | 0 mm | - | 29 W/m² | - |
| 1777375958 | 17.22° C | 99% | 1013.8 hPa | 0 mm | - | 23 W/m² | - |
| 1777375653 | 17.22° C | 99% | 1014.3 hPa | 0 mm | - | 17 W/m² | - |
| 1777375347 | 17.22° C | 99% | 1014 hPa | 0 mm | - | 11 W/m² | - |
| 1777375045 | 17.22° C | 99% | 1013.8 hPa | 0 mm | - | 7 W/m² | - |
| 1777374740 | 17.22° C | 99% | 1013.4 hPa | 0 mm | - | 4 W/m² | - |
| 1777374436 | 17.22° C | 99% | 1013.6 hPa | 0 mm | - | 2 W/m² | - |
| 1777374134 | 17.22° C | 99% | 1013.6 hPa | 0 mm | - | 1 W/m² | - |
| 1777373828 | 17.22° C | 99% | 1013.7 hPa | 0 mm | - | 0 W/m² | - |
| 1777373527 | 17.22° C | 99% | 1013.5 hPa | 0 mm | - | 0 W/m² | - |
| 1777373227 | 17.22° C | 99% | 1013.1 hPa | 0 mm | - | 0 W/m² | - |
| 1777372918 | 17.22° C | 99% | 1013.3 hPa | 0 mm | - | 0 W/m² | - |
| 1777372612 | 17.22° C | 99% | 1013.2 hPa | 0 mm | - | 0 W/m² | - |
| 1777372312 | 17.22° C | 99% | 1013.1 hPa | 0 mm | - | 0 W/m² | - |
| 1777372010 | 17.22° C | 99% | 1012.9 hPa | 0 mm | - | 0 W/m² | - |
| 1777371706 | 17.22° C | 99% | 1013.1 hPa | 0 mm | - | 0 W/m² | - |
| 1777371403 | 17.78° C | 99% | 1013 hPa | 0 mm | - | 0 W/m² | - |
| 1777371100 | 17.78° C | 99% | 1012.7 hPa | 0 mm | - | 0 W/m² | - |
| 1777370797 | 17.78° C | 99% | 1012.6 hPa | 0 mm | - | 0 W/m² | - |
* Rain latest hour (hover to see other rain measurements)
** Current wind speed in m/s (hover to see current wind gust speed)